KUIPER-00251
导读 | 豆包AI
KUIPER-00251是美国亚马逊“柯伊伯项目”星座中的一颗低轨宽带通信卫星,于2025年12月15日发射入轨。该项目计划部署3236颗卫星,旨在为全球,尤其偏远无网络覆盖地区,提供高速低延迟的卫星互联网接入服务。作为项目大规模部署阶段的卫星,KUIPER-00251将与其他卫星共同构建覆盖全球的低轨通信网络,可支持家庭上网、应急通信、企业云服务等多元应用场景。
Basic Information
目录编号:
67156
目录名称:
KUIPER-00251
国际标识:
2025-301Z
轨道中心:
EARTH
卫星名称:
KUIPER-00251
卫星全名:
KUIPER-00251
卫星状态:
在轨 (已飞行161 天)
发射日期:
2025-12-15 UTC
国别 :
美国
(US)
星等 :
--
Orbit Information
| 数据来源 | 国际轨道数据 |
| 星历时间: | 2026-05-24T11:09:39+0800 1天前 查看轨道信息 |
| 半长轴: | 7007.69km |
| 偏心率: | 0.0001815 |
| 轨道倾角: | 51.899° |
| 近地点辐角 | 146.572° |
| 升交点赤经 | 84.555° |
| 平近点角 | 213.536° |
| 近地点: | 628.281km |
| 远地点: | 630.825km |
| 周期: | 97.302分钟 |
| 每日圈数: | 14.799278 |
Detailed Information
使用方式:
暂无
2D Orbit Map
3D Orbit Map
Orbit Altitude Analysis Chart
Orbit Inclination Analysis Chart
Orbit Comprehensive Analysis Chart
View Comprehensive Chart

